Location: Newark
(50.4348°N, 30.5552°E)
Time: 06:17:09
(UTC+00:00)

Altair - Pass Details

Date: 28 January 2020
Orbit: 1502 x 1682 km, 47.2° (Epoch: 17 February)

Event Time Altitude Azimuth Distance (km) Brightness Sun altitude
Rises 06:36:06 0° 237° (WSW) 4,871 10.0 6.7°
Reaches altitude 10° 06:39:15 10° 234° (SW) 3,903 9.5 7.1°
Maximum altitude 06:49:03 60° 157° (SSE) 1,874 8.6 8.2°
Drops below altitude 10° 06:58:58 10° 81° (E) 3,943 10.3 9.4°
Sets 07:02:10 0° 79° (ENE) 4,924 10.7 9.7°
